Simultaneous Nadir Overpasses (SNOs) Predictions

Prediction of SNOs near US between AQUA and NPP Satellite Orbit:

Table of predicted SNOs near US for the next 10.0 days since TLE Epoch: 11/4/2016
Index Date (AQUA) Time (AQUA) AQUA Lat,Lon Date (NPP) Time (NPP) NPP Lat,Lon Distance(km) Time Diff (sec)
1 11/05/2016 09:22:34 25.58,-112.93 11/05/2016 09:15:46 25.65,-113.39 46.82 408
2 11/08/2016 06:29:55 46.39, -65.04 11/08/2016 06:31:08 46.79, -67.10 163.42 73
3 11/08/2016 08:07:49 49.89, -88.37 11/08/2016 08:11:35 50.41, -90.92 191.12 226
4 11/08/2016 09:46:42 49.90,-113.09 11/08/2016 09:53:03 50.52,-116.25 235.53 381
5 11/10/2016 19:05:58 49.94, -92.55 11/10/2016 19:01:52 49.62, -94.45 140.99 246
6 11/10/2016 20:44:52 50.00,-117.29 11/10/2016 20:43:21 49.57,-119.80 186.20 91
7 11/13/2016 08:34:23 21.05,-101.65 11/13/2016 08:26:20 21.08,-101.87 23.26 483
8 11/13/2016 10:10:45 30.14,-124.13 11/13/2016 10:05:13 30.27,-124.86 71.57 332




NCC Satellite Simultaneous Nadir Overpasses (SNOs) Prediction Service
